Location: Newark
(32.9900°N, 111.5400°W)
Time: 12:40:19
(UTC+00:00)

N. Korean satellite - Pass Details

Date: 22 November 2019
Orbit: 455 x 507 km, 97.2° (Epoch: 14 December)

Event Time Altitude Azimuth Distance (km) Brightness Sun altitude
Rises 12:45:35 0° 21° (NNE) 2,593 10.4 -16.2°
Reaches altitude 10° 12:47:50 10° 31° (NNE) 1,698 9.5 -15.7°
Maximum altitude 12:51:11 34° 98° (E) 828 8.4 -15.1°
Drops below altitude 10° 12:54:28 10° 164° (SSE) 1,662 9.7 -14.4°
Sets 12:56:37 0° 174° (S) 2,527 10.5 -13.9°
